"Pseudo-MPEC" for P10Ufun

Created 2019 Nov 9 8:07:22 UT using Find_Orb

Click here for an explanation of pseudo-MPECs

 
 Astrometry: 
     P10Ufun  C2019 11 02Um8xAstrometry_3,dfAVh*sJ6vh9fY*hITC9.P:k_a^]GKDe7eAF51
     P10Ufun  C2019 11 02%ooO`kqS1+]yTkwmMakgHOJITn5redacted;E30J)%TCq%v\04\%F51
     P10Ufun  C2019 11 07Y1%`LKMOTRx/gT4xYq#g:Nlj1#$mu^-cfY4nbiFaRFN,4L?_P,yXF51
     P10Ufun  C2019 11 07yDiV\Q`clickb8$)L8w4[wugw$t2*mq4KmSI\/K?:2[S6Y(;m8C+F51
     P10Ufun  C2019 11 076!Y+MM@MR3!oiMh)9$6)Bo1^=)P:here5@;nforvFuJfHVS(XIK_F51
     P10Ufun  C2019 11 07kUexplanationRoE[loF*2PZ?UA3QAcU.ef;nDd?]0N5%NpqCp!/F51
     P10Ufun KC2019 11 09.24337 04 26 19.37 +24 53 10.1    ~B977 21.8 RoNEOCP291
     P10Ufun KC2019 11 09.25838 04 26 18.70 +24 53 36.4    ~B977 21.9 RoNEOCP291
     P10Ufun KC2019 11 09.27343 04 26 18.04 +24 54 02.4    ~B977       oNEOCP291

Station data:
(291) LPL/Spacewatch II  (N31.961669 W111.599905)  US/Arizona.  Observers J.
   V. Scotti, R. S. McMillan. 1.8-m f/2.7 reflector + CCD.
(F51) Pan-STARRS 1, Haleakala  (N20.707235 W156.255910)  US/Hawaii.
   Observers N. Primak, A. Schultz, S. Watters, J. Thiel, T. Goggia. Measurer
   PS1 Science Consortium. 1.8-m Ritchey-Chrétien + CCD.

Orbital elements:  P10Ufun
   Perihelion 2019 Nov 13.878397 +/- 0.232 TT = 21:04:53 (JD 2458801.378397)
Epoch 2019 Nov  9.0 TT = JDT 2458796.5   Earth MOID: 0.5009   Ma: 0.0173
M 358.69423591 +/- 0.06             (J2000 ecliptic)          AutoNEOCP
n   0.26766253 +/- 0.00203          Peri.    7.08483 +/- 0.14
a   2.38457504 +/- 0.012            Node    50.05175 +/- 0.030
e   0.3756715 +/- 0.00223           Incl.   15.60429 +/- 0.07
P   3.68                   H 21.6   G  0.15   U  8.6  
q 1.48875815 +/- 0.00223    Q 3.28039192 +/- 0.022
From 9 observations 2019 Nov. 2-9; mean residual 0".12
Residuals in arcseconds: 
191102 F51  .03-  .08+    191107 F51  .05-  .07+    191109 291  .01-  .16+    
191102 F51  .03+  .08-    191107 F51  .29+  .01+    191109 291  .09-  .11+    
191107 F51  .15-  .01-    191107 F51  .09-  .08-    191109 291  .09+  .26-    

Ephemerides (geocentric):
Date (UTC) HH   RA              Dec         delta   r     elong  mag " sig PA
---- -- -- --  -------------   -----------  ------ ------ -----  --- ---- ---
2019 11 09 08  04 26 15.124   +24 55 49.27  .52550 1.4893 157.3 21.9 .213  83
2019 11 09 09  04 26 13.477   +24 57 01.42  .52540 1.4893 157.4 21.9 .227  83
2019 11 09 10  04 26 11.825   +24 58 13.58  .52530 1.4893 157.4 21.9 .240  82
2019 11 09 11  04 26 10.167   +24 59 25.75  .52520 1.4892 157.4 21.9 .254  82
2019 11 09 12  04 26 08.505   +25 00 37.93  .52510 1.4892 157.5 21.9 .267  82
2019 11 09 13  04 26 06.838   +25 01 50.13  .52500 1.4892 157.5 21.9 .281  82
2019 11 09 14  04 26 05.166   +25 03 02.33  .52491 1.4892 157.6 21.9 .295  82
2019 11 09 15  04 26 03.489   +25 04 14.54  .52481 1.4892 157.6 21.9 .309  82
2019 11 09 16  04 26 01.807   +25 05 26.76  .52471 1.4892 157.6 21.9 .323  82
2019 11 09 17  04 26 00.119   +25 06 38.99  .52461 1.4892 157.7 21.9 .338  82
2019 11 09 18  04 25 58.427   +25 07 51.24  .52451 1.4892 157.7 21.9 .352  81
2019 11 09 19  04 25 56.730   +25 09 03.49  .52442 1.4892 157.8 21.9 .367  81
2019 11 09 20  04 25 55.028   +25 10 15.74  .52432 1.4892 157.8 21.9 .382  81
2019 11 09 21  04 25 53.321   +25 11 28.01  .52422 1.4892 157.8 21.9 .397  81
2019 11 09 22  04 25 51.608   +25 12 40.29  .52413 1.4892 157.9 21.9 .412  81
2019 11 09 23  04 25 49.891   +25 13 52.58  .52403 1.4891 157.9 21.9 .427  81
2019 11 10 00  04 25 48.169   +25 15 04.87  .52394 1.4891 158.0 21.9 .442  81
2019 11 10 01  04 25 46.442   +25 16 17.17  .52384 1.4891 158.0 21.9 .458  81
2019 11 10 02  04 25 44.710   +25 17 29.48  .52375 1.4891 158.1 21.9 .473  81
2019 11 10 03  04 25 42.973   +25 18 41.80  .52365 1.4891 158.1 21.9 .489  81
2019 11 10 04  04 25 41.231   +25 19 54.13  .52356 1.4891 158.1 21.9 .505  81
2019 11 10 05  04 25 39.484   +25 21 06.47  .52346 1.4891 158.2 21.9 .521  80
2019 11 10 06  04 25 37.732   +25 22 18.81  .52337 1.4891 158.2 21.9 .537  80
2019 11 10 07  04 25 35.976   +25 23 31.16  .52328 1.4891 158.3 21.9 .554  80
2019 11 10 08  04 25 34.214   +25 24 43.52  .52319 1.4891 158.3 21.9 .570  80
2019 11 10 09  04 25 32.447   +25 25 55.89  .52309 1.4891 158.3 21.9 .587  80
2019 11 10 10  04 25 30.676   +25 27 08.26  .52300 1.4891 158.4 21.9 .604  80
2019 11 10 11  04 25 28.899   +25 28 20.64  .52291 1.4891 158.4 21.9 .620  80
2019 11 10 12  04 25 27.118   +25 29 33.03  .52282 1.4890 158.5 21.9 .637  80
2019 11 10 13  04 25 25.331   +25 30 45.42  .52273 1.4890 158.5 21.9 .655  80
2019 11 10 14  04 25 23.540   +25 31 57.82  .52264 1.4890 158.5 21.9 .672  80
2019 11 10 15  04 25 21.744   +25 33 10.23  .52255 1.4890 158.6 21.9 .689  80
2019 11 10 16  04 25 19.943   +25 34 22.65  .52246 1.4890 158.6 21.9 .707  80
2019 11 10 17  04 25 18.137   +25 35 35.07  .52237 1.4890 158.7 21.9 .725  80
2019 11 10 18  04 25 16.326   +25 36 47.49  .52228 1.4890 158.7 21.9 .742  80
2019 11 10 19  04 25 14.510   +25 37 59.93  .52219 1.4890 158.8 21.9 .760  80
2019 11 10 20  04 25 12.690   +25 39 12.37  .52210 1.4890 158.8 21.9 .778  80
2019 11 10 21  04 25 10.864   +25 40 24.81  .52201 1.4890 158.8 21.9 .797  79
2019 11 10 22  04 25 09.034   +25 41 37.26  .52192 1.4890 158.9 21.9 .815  79
2019 11 10 23  04 25 07.199   +25 42 49.72  .52183 1.4890 158.9 21.9 .834  79
2019 11 11 00  04 25 05.359   +25 44 02.18  .52175 1.4890 159.0 21.9 .852  79
2019 11 11 01  04 25 03.514   +25 45 14.64  .52166 1.4890 159.0 21.9 .871  79
2019 11 11 02  04 25 01.664   +25 46 27.12  .52157 1.4890 159.0 21.8 .890  79
2019 11 11 03  04 24 59.810   +25 47 39.59  .52149 1.4889 159.1 21.8 .909  79
2019 11 11 04  04 24 57.950   +25 48 52.07  .52140 1.4889 159.1 21.8 .928  79
2019 11 11 05  04 24 56.086   +25 50 04.56  .52131 1.4889 159.2 21.8 .948  79
2019 11 11 06  04 24 54.217   +25 51 17.05  .52123 1.4889 159.2 21.8 .967  79
2019 11 11 07  04 24 52.343   +25 52 29.55  .52114 1.4889 159.2 21.8 .987  79